EW4320 Weather Reports


time (UTC)temp
C
wind
direction
speed
KPH
gust
KPH
rain 1hr
cm
rain 24hr
cm
rain mn
cm
humidity
%
barometer
mb
20260507100503 10 58 3.2 4.8 0.00 0.03 0.00 76 1015.6
20260507100218 10 55 1.6 4.8 0.00 0.03 0.00 75 1015.6
20260507095716 10 5 0.0 4.8 0.00 0.03 0.00 75 1015.6
20260507095003 11 360 0.0 3.2 0.00 0.03 0.00 75 1015.6
20260507094503 11 359 1.6 4.8 0.00 0.03 0.00 75 1015.6
20260507094004 11 316 1.6 4.8 0.00 0.03 0.00 75 1015.6
20260507093503 11 209 1.6 3.2 0.00 0.03 0.00 75 1015.6
20260507093003 11 202 1.6 4.8 0.00 0.03 0.00 75 1015.6
20260507092503 11 198 1.6 4.8 0.00 0.03 0.00 75 1015.5
20260507092003 11 202 1.6 8.0 0.00 0.03 0.00 74 1015.5
20260507091504 11 209 1.6 8.0 0.00 0.03 0.00 74 1015.5
20260507091212 11 214 1.6 4.8 0.00 0.03 0.00 74 1015.4
20260507090505 11 210 1.6 6.4 0.00 0.03 0.00 74 1015.4
20260507090005 11 193 3.2 8.0 0.00 0.03 0.00 74 1015.4
20260507085505 11 171 1.6 8.0 0.00 0.03 0.00 74 1015.3
20260507085003 11 164 1.6 4.8 0.00 0.03 0.00 74 1015.3
20260507084504 11 206 3.2 8.0 0.00 0.03 0.00 74 1015.3
20260507084215 11 211 3.2 8.0 0.00 0.03 0.00 74 1015.5
20260507083713 11 198 4.8 9.7 0.00 0.03 0.00 76 1015.5
20260507083005 10 167 3.2 8.0 0.00 0.03 0.00 79 1015.5
20260507082504 10 155 1.6 8.0 0.00 0.03 0.00 79 1015.5
20260507082005 10 156 3.2 9.7 0.00 0.03 0.00 79 1015.5
20260507081505 10 169 3.2 9.7 0.00 0.03 0.00 80 1015.5
20260507081004 10 182 3.2 8.0 0.00 0.03 0.00 79 1015.5
20260507080503 10 155 3.2 8.0 0.00 0.03 0.00 80 1015.5
20260507080005 10 145 3.2 8.0 0.00 0.03 0.00 80 1015.5
20260507075504 10 137 3.2 8.0 0.00 0.03 0.00 80 1015.3
20260507075003 10 145 3.2 8.0 0.00 0.03 0.00 81 1015.3
20260507074503 9 162 3.2 8.0 0.00 0.03 0.00 82 1015.3
20260507074003 9 157 3.2 9.7 0.00 0.03 0.00 83 1015.3
20260507073505 9 162 3.2 9.7 0.00 0.03 0.00 84 1015.3
20260507073003 9 168 3.2 8.0 0.00 0.03 0.00 85 1015.3
20260507072504 9 139 1.6 4.8 0.00 0.03 0.00 86 1015.2
20260507072004 9 96 1.6 4.8 0.00 0.03 0.00 86 1015.2
20260507071504 8 87 3.2 8.0 0.00 0.03 0.00 87 1015.2
20260507071004 8 85 3.2 8.0 0.00 0.03 0.00 87 1015.2
20260507070717 8 87 3.2 8.0 0.00 0.03 0.00 88 1015.2
20260507070006 8 103 3.2 6.4 0.00 0.03 0.00 89 1015.2
20260507065712 8 110 1.6 6.4 0.00 0.03 0.00 89 1015.2
20260507065004 8 106 1.6 4.8 0.00 0.03 0.00 89 1015.2
20260507064504 8 121 3.2 8.0 0.00 0.03 0.00 90 1015.2
20260507064003 8 129 3.2 8.0 0.00 0.03 0.00 90 1015.1
20260507063503 8 123 3.2 8.0 0.00 0.03 0.00 91 1015.1
20260507063004 8 137 1.6 8.0 0.00 0.03 0.00 92 1015.1
20260507062504 8 124 1.6 8.0 0.00 0.03 0.00 92 1015.0
20260507062004 8 100 1.6 8.0 0.00 0.03 0.00 92 1015.0
20260507061503 7 86 1.6 8.0 0.00 0.03 0.00 92 1015.0
20260507061003 7 46 1.6 4.8 0.00 0.03 0.00 93 1015.0
20260507060504 7 10 1.6 4.8 0.00 0.03 0.00 93 1015.0
20260507060004 7 1 1.6 4.8 0.00 0.03 0.00 93 1015.0
20260507055503 6 1 1.6 4.8 0.00 0.03 0.00 93 1014.9
20260507055004 6 1 1.6 4.8 0.00 0.03 0.00 92 1014.9
20260507054504 6 1 1.6 4.8 0.00 0.03 0.00 92 1014.9
20260507054004 6 10 3.2 4.8 0.00 0.03 0.00 92 1014.9
20260507053503 6 43 1.6 4.8 0.00 0.03 0.00 92 1014.9
20260507053218 6 74 1.6 3.2 0.00 0.03 0.00 92 1014.9
20260507052503 6 95 1.6 3.2 0.00 0.03 0.00 91 1014.8
20260507052003 6 95 0.0 3.2 0.00 0.03 0.00 91 1014.8
20260507051503 6 0 0.0 0.0 0.00 0.03 0.00 91 1014.8
20260507051004 6 0 0.0 0.0 0.00 0.03 0.00 91 1014.7
20260507050504 6 0 0.0 0.0 0.00 0.03 0.00 91 1014.7
20260507050005 6 0 0.0 0.0 0.00 0.03 0.00 91 1014.7
20260507045504 6 0 0.0 0.0 0.00 0.03 0.00 91 1014.7
20260507045005 6 0 0.0 0.0 0.00 0.03 0.00 91 1014.7
20260507044715 6 0 0.0 0.0 0.00 0.03 0.00 91 1014.7
20260507044213 6 0 0.0 0.0 0.00 0.03 0.00 91 1014.7
20260507043716 6 0 0.0 0.0 0.00 0.03 0.00 91 1014.7
20260507043003 7 0 0.0 1.6 0.00 0.03 0.00 91 1014.7
20260507042503 7 95 0.0 1.6 0.00 0.03 0.00 91 1014.6
20260507042003 7 95 0.0 3.2 0.00 0.03 0.00 91 1014.6
20260507041504 7 95 1.6 3.2 0.00 0.03 0.00 91 1014.6
20260507041003 7 91 1.6 3.2 0.00 0.03 0.00 91 1014.6
20260507040713 7 88 1.6 3.2 0.00 0.03 0.00 91 1014.6
20260507040217 7 82 1.6 4.8 0.00 0.03 0.00 91 1014.6
20260507035504 7 81 1.6 3.2 0.00 0.03 0.00 91 1014.6
20260507035212 7 79 1.6 6.4 0.00 0.03 0.00 91 1014.6
20260507034504 7 80 3.2 6.4 0.00 0.03 0.00 91 1014.6
20260507034004 7 78 3.2 6.4 0.00 0.03 0.00 91 1014.5
20260507033504 7 77 4.8 8.0 0.00 0.03 0.00 91 1014.5
20260507033004 7 78 3.2 8.0 0.00 0.03 0.00 91 1014.5
20260507032503 7 76 3.2 4.8 0.00 0.03 0.00 91 1014.6
20260507032004 7 74 3.2 8.0 0.00 0.03 0.00 91 1014.6
20260507031504 7 75 1.6 8.0 0.00 0.03 0.00 91 1014.6
20260507031005 7 76 1.6 4.8 0.00 0.03 0.00 91 1014.5
20260507030504 7 79 3.2 6.4 0.00 0.03 0.00 91 1014.5
20260507030004 7 77 3.2 8.0 0.00 0.03 0.00 91 1014.5
20260507025503 7 72 3.2 8.0 0.00 0.03 0.00 91 1014.4
20260507025213 7 70 3.2 6.4 0.00 0.03 0.00 91 1014.4
20260507024503 7 72 3.2 9.7 0.00 0.03 0.00 91 1014.4
20260507024003 7 75 3.2 9.7 0.00 0.03 0.00 91 1014.4
20260507023505 7 81 3.2 8.0 0.00 0.03 0.00 91 1014.4
20260507023003 7 74 4.8 14.5 0.00 0.03 0.00 91 1014.4
20260507022713 7 70 4.8 14.5 0.00 0.03 0.00 91 1014.4
20260507022003 7 59 3.2 8.0 0.00 0.03 0.00 91 1014.4
20260507021503 7 54 3.2 9.7 0.00 0.03 0.00 90 1014.4
20260507021003 7 44 3.2 9.7 0.00 0.03 0.00 90 1014.2
20260507020715 7 48 3.2 9.7 0.00 0.03 0.00 90 1014.2
20260507020004 8 46 3.2 9.7 0.00 0.03 0.00 90 1014.2
20260507015503 8 33 3.2 9.7 0.00 0.03 0.00 90 1014.2
20260507015006 8 30 3.2 9.7 0.00 0.03 0.00 91 1014.2
20260507014503 8 32 3.2 8.0 0.00 0.03 0.00 90 1014.2
20260507014214 8 34 3.2 6.4 0.00 0.03 0.00 90 1014.2
20260507013504 8 30 3.2 8.0 0.00 0.03 0.00 90 1014.2
20260507013003 8 23 3.2 8.0 0.00 0.03 0.00 90 1014.2
20260507012718 8 16 3.2 9.7 0.00 0.03 0.00 90 1014.2
20260507012004 8 7 3.2 9.7 0.00 0.03 0.00 90 1014.2
20260507011503 8 5 4.8 9.7 0.00 0.03 0.00 90 1014.2
20260507011003 7 5 3.2 9.7 0.00 0.03 0.00 90 1014.3
20260507010715 7 3 3.2 9.7 0.00 0.03 0.00 90 1014.3
20260507010004 7 341 3.2 9.7 0.00 0.03 0.00 90 1014.3
20260507005504 7 325 4.8 9.7 0.00 0.03 0.00 90 1014.4
20260507005003 7 319 4.8 9.7 0.00 0.03 0.00 90 1014.4
20260507004717 7 320 4.8 8.0 0.00 0.03 0.00 90 1014.4
20260507004215 7 320 4.8 9.7 0.00 0.03 0.00 90 1014.4
20260507003503 7 319 4.8 9.7 0.00 0.03 0.00 90 1014.4
20260507003003 7 315 4.8 9.7 0.00 0.03 0.00 89 1014.4
20260507002503 7 320 6.4 11.3 0.00 0.03 0.00 89 1014.3
20260507002003 7 324 8.0 14.5 0.00 0.03 0.00 89 1014.3
20260507001503 7 324 6.4 14.5 0.00 0.03 0.00 89 1014.3
20260507001213 7 320 6.4 11.3 0.00 0.03 0.00 89 1014.4
20260507000503 7 321 4.8 9.7 0.00 0.03 0.00 89 1014.4
20260507000015 7 313 4.8 11.3 0.00 0.03 0.00 89 1014.4
20260506235717 7 311 4.8 11.3 0.00 0.03 0.03 89 1014.4
20260506235003 7 321 4.8 14.5 0.00 0.03 0.03 89 1014.4
20260506234505 7 318 4.8 14.5 0.00 0.03 0.03 89 1014.4
20260506234005 7 322 4.8 9.7 0.00 0.03 0.03 89 1014.4
20260506233503 7 323 4.8 11.3 0.00 0.03 0.03 89 1014.4
20260506233217 7 322 4.8 11.3 0.00 0.03 0.03 89 1014.4
20260506232504 7 321 4.8 9.7 0.00 0.03 0.03 89 1014.4
20260506232003 7 325 4.8 9.7 0.00 0.03 0.03 89 1014.4
20260506231504 8 324 6.4 11.3 0.00 0.03 0.03 89 1014.4
20260506231004 8 322 4.8 11.3 0.00 0.03 0.03 89 1014.3
20260506230503 8 326 3.2 8.0 0.00 0.03 0.03 89 1014.3
20260506230003 8 334 3.2 8.0 0.00 0.03 0.03 89 1014.3
20260506225503 8 337 4.8 8.0 0.00 0.03 0.03 89 1014.3
20260506225215 8 343 4.8 9.7 0.00 0.03 0.03 89 1014.3
20260506224503 8 352 4.8 9.7 0.00 0.03 0.03 88 1014.3
20260506224003 8 346 4.8 9.7 0.00 0.03 0.03 88 1014.2
20260506223714 8 344 4.8 9.7 0.00 0.03 0.03 88 1014.2
20260506223003 8 355 4.8 11.3 0.00 0.03 0.03 88 1014.2
20260506222503 8 353 4.8 11.3 0.00 0.03 0.03 88 1014.3
20260506222005 8 348 4.8 9.7 0.00 0.03 0.03 88 1014.3
20260506221505 8 350 4.8 9.7 0.00 0.03 0.03 88 1014.3
20260506221003 8 352 4.8 9.7 0.00 0.03 0.03 88 1014.3
20260506220504 8 351 4.8 9.7 0.00 0.03 0.03 88 1014.3
20260506220003 8 349 4.8 9.7 0.00 0.03 0.03 88 1014.3
20260506215503 8 353 4.8 9.7 0.00 0.03 0.03 87 1014.2
20260506215003 8 354 4.8 11.3 0.00 0.03 0.03 87 1014.2
20260506214714 8 353 4.8 11.3 0.00 0.03 0.03 87 1014.2
20260506214217 8 357 4.8 9.7 0.00 0.03 0.03 87 1014.2
20260506213715 8 356 4.8 11.3 0.00 0.03 0.03 87 1014.2
20260506213005 8 356 8.0 14.5 0.00 0.03 0.03 87 1014.2
20260506212504 8 355 8.0 14.5 0.00 0.03 0.03 87 1014.2
20260506212003 8 353 6.4 11.3 0.00 0.03 0.03 86 1014.2
20260506211717 8 352 6.4 11.3 0.00 0.03 0.03 86 1014.2
20260506211003 8 351 8.0 14.5 0.00 0.03 0.03 86 1014.1
20260506210504 8 351 9.7 14.5 0.00 0.03 0.03 86 1014.1
20260506210003 8 353 8.0 14.5 0.00 0.03 0.03 86 1014.1
20260506205503 8 356 8.0 14.5 0.00 0.03 0.03 86 1014.0
20260506205003 8 356 8.0 14.5 0.00 0.03 0.03 85 1014.0
20260506204504 8 359 6.4 14.5 0.00 0.03 0.03 85 1014.0
20260506204213 8 360 6.4 14.5 0.00 0.03 0.03 85 1013.8
20260506203503 8 360 6.4 14.5 0.00 0.03 0.03 85 1013.8
20260506203004 8 7 6.4 14.5 0.00 0.03 0.03 84 1013.8
20260506202503 8 7 8.0 17.7 0.00 0.03 0.03 84 1013.7
20260506202215 8 5 8.0 19.3 0.00 0.03 0.03 84 1013.7
20260506201504 8 5 9.7 20.9 0.00 0.03 0.03 83 1013.7
20260506201004 8 2 9.7 20.9 0.00 0.03 0.03 83 1013.6
20260506200504 8 2 9.7 20.9 0.00 0.03 0.03 83 1013.6
20260506200003 8 4 8.0 19.3 0.00 0.03 0.03 83 1013.6
20260506195503 8 7 6.4 16.1 0.00 0.03 0.03 82 1013.6
20260506195003 8 5 8.0 17.7 0.00 0.03 0.03 82 1013.6
20260506194503 8 1 9.7 17.7 0.00 0.03 0.03 81 1013.6
20260506194003 8 1 11.3 20.9 0.00 0.03 0.03 81 1013.6
20260506193503 9 359 12.9 20.9 0.00 0.03 0.03 80 1013.6
20260506193003 9 359 12.9 20.9 0.00 0.03 0.03 80 1013.6
20260506192503 9 360 11.3 20.9 0.00 0.03 0.03 79 1013.5
20260506192215 9 359 11.3 22.5 0.00 0.03 0.03 78 1013.5
20260506191504 10 359 12.9 22.5 0.00 0.03 0.03 77 1013.5
20260506191003 10 2 11.3 22.5 0.00 0.03 0.03 77 1013.3
20260506190504 10 7 9.7 22.5 0.00 0.03 0.03 76 1013.3
20260506190217 10 4 9.7 20.9 0.00 0.03 0.03 75 1013.3
20260506185505 10 7 9.7 20.9 0.00 0.03 0.03 74 1013.3
20260506185218 10 12 9.7 20.9 0.00 0.03 0.03 74 1013.3
20260506184504 10 360 11.3 22.5 0.00 0.03 0.03 73 1013.3
20260506184214 10 358 11.3 22.5 0.00 0.03 0.03 73 1013.1
20260506183504 11 16 9.7 20.9 0.00 0.03 0.03 72 1013.1
20260506183005 11 16 9.7 20.9 0.00 0.03 0.03 71 1013.1
20260506182713 11 16 9.7 20.9 0.00 0.03 0.03 71 1013.0
20260506182216 11 7 9.7 20.9 0.00 0.03 0.03 71 1013.0
20260506181503 11 1 11.3 24.1 0.00 0.03 0.03 71 1013.0
20260506181004 11 2 9.7 24.1 0.00 0.03 0.03 71 1012.8
20260506180504 11 8 9.7 19.3 0.00 0.03 0.03 70 1012.8
20260506180005 11 7 11.3 24.1 0.00 0.03 0.03 69 1012.8
20260506175503 11 360 11.3 24.1 0.00 0.03 0.03 69 1012.6
20260506175004 11 356 12.9 22.5 0.00 0.03 0.03 68 1012.6
20260506174717 11 358 11.3 22.5 0.00 0.03 0.03 68 1012.6
20260506174214 11 5 9.7 22.5 0.00 0.03 0.03 67 1012.5
20260506173504 12 5 11.3 24.1 0.00 0.03 0.03 66 1012.5
20260506173004 12 1 11.3 24.1 0.00 0.03 0.03 66 1012.5
20260506172503 12 1 9.7 22.5 0.00 0.03 0.03 66 1012.4
20260506172004 12 360 8.0 20.9 0.00 0.03 0.03 67 1012.4
20260506171504 11 8 8.0 20.9 0.00 0.03 0.03 67 1012.4
20260506171004 11 22 8.0 19.3 0.00 0.03 0.03 67 1012.5
20260506170504 11 27 8.0 19.3 0.00 0.03 0.03 66 1012.5
20260506170003 12 16 8.0 16.1 0.00 0.03 0.03 65 1012.5
20260506165716 12 20 8.0 17.7 0.00 0.03 0.03 65 1012.4
20260506165003 12 25 6.4 17.7 0.00 0.03 0.03 65 1012.4
20260506164717 12 22 6.4 19.3 0.00 0.03 0.03 64 1012.4
20260506164004 12 23 8.0 19.3 0.00 0.03 0.03 64 1012.3
20260506163503 12 23 9.7 19.3 0.00 0.03 0.03 63 1012.3
20260506163216 12 16 9.7 22.5 0.00 0.03 0.03 63 1012.3
20260506162503 12 6 11.3 22.5 0.00 0.03 0.03 62 1012.2
20260506162004 12 357 11.3 24.1 0.00 0.03 0.03 62 1012.2
20260506161504 12 351 12.9 24.1 0.00 0.03 0.03 61 1012.2
20260506161003 12 344 11.3 22.5 0.00 0.03 0.03 61 1012.3
20260506160716 12 340 12.9 24.1 0.00 0.03 0.03 60 1012.3
20260506160003 12 341 11.3 24.1 0.00 0.03 0.03 60 1012.3
20260506155504 12 345 11.3 24.1 0.00 0.03 0.03 60 1012.4
20260506155003 12 349 11.3 24.1 0.00 0.03 0.03 60 1012.4
20260506154503 12 349 11.3 24.1 0.00 0.03 0.03 58 1012.4
20260506154216 12 350 11.3 24.1 0.00 0.03 0.03 58 1012.4
20260506153503 12 358 12.9 22.5 0.00 0.03 0.03 57 1012.4
20260506153217 12 1 11.3 22.5 0.00 0.03 0.03 57 1012.4
20260506152504 12 2 9.7 22.5 0.00 0.03 0.03 58 1012.3
20260506152003 12 351 11.3 22.5 0.00 0.03 0.03 57 1012.3
20260506151503 13 340 11.3 19.3 0.00 0.03 0.03 56 1012.3
20260506151219 13 336 9.7 19.3 0.00 0.03 0.03 56 1012.2
20260506150503 12 346 11.3 22.5 0.00 0.03 0.03 56 1012.2
20260506150004 13 344 11.3 22.5 0.00 0.03 0.03 56 1012.2
20260506145504 13 334 11.3 20.9 0.00 0.03 0.03 56 1012.2
20260506145215 13 330 11.3 20.9 0.00 0.03 0.03 56 1012.2
20260506144503 13 348 11.3 19.3 0.00 0.03 0.03 56 1012.2
20260506144216 13 352 9.7 19.3 0.00 0.03 0.03 55 1012.2
20260506143503 13 349 11.3 20.9 0.00 0.03 0.03 56 1012.2
20260506143003 13 3 9.7 20.9 0.00 0.03 0.03 57 1012.2
20260506142715 13 5 8.0 19.3 0.00 0.03 0.03 59 1012.1
20260506142218 13 360 8.0 17.7 0.00 0.03 0.03 58 1012.1
20260506141504 12 354 9.7 19.3 0.00 0.03 0.03 60 1012.1
20260506141004 12 357 9.7 20.9 0.00 0.03 0.03 60 1012.3
20260506140503 12 355 11.3 20.9 0.00 0.03 0.03 60 1012.3
20260506140004 12 356 9.7 19.3 0.00 0.03 0.03 60 1012.3
20260506135504 12 2 8.0 19.3 0.00 0.03 0.03 59 1012.5
20260506135004 12 10 8.0 19.3 0.00 0.03 0.03 61 1012.5
20260506134503 12 14 9.7 19.3 0.00 0.03 0.03 61 1012.5
20260506134005 12 22 8.0 19.3 0.00 0.03 0.03 62 1012.5
20260506133503 12 22 8.0 19.3 0.00 0.03 0.03 62 1012.5
20260506133003 12 14 9.7 20.9 0.00 0.03 0.03 63 1012.5
20260506132503 11 6 11.3 20.9 0.00 0.03 0.03 64 1012.5
20260506132005 11 359 11.3 27.4 0.00 0.03 0.03 64 1012.5
20260506131717 12 358 11.3 27.4 0.00 0.03 0.03 65 1012.5
20260506131003 12 20 6.4 19.3 0.00 0.03 0.03 66 1012.6
20260506130503 12 9 8.0 17.7 0.00 0.03 0.03 66 1012.6
20260506130005 12 357 11.3 19.3 0.00 0.03 0.03 65 1012.6
20260506125504 12 355 12.9 22.5 0.00 0.03 0.03 66 1012.6
20260506125003 12 1 11.3 22.5 0.00 0.03 0.03 65 1012.6
20260506124715 12 3 11.3 22.5 0.00 0.03 0.03 67 1012.6
20260506124004 11 6 9.7 20.9 0.00 0.03 0.03 67 1012.6
20260506123504 11 13 9.7 24.1 0.00 0.03 0.03 70 1012.6
20260506123003 11 16 8.0 24.1 0.00 0.03 0.03 71 1012.6
20260506122503 10 7 8.0 19.3 0.00 0.03 0.03 74 1012.7
20260506122003 10 359 9.7 19.3 0.03 0.03 0.03 75 1012.7
20260506121503 10 358 8.0 19.3 0.03 0.03 0.03 77 1012.7
20260506121003 10 8 8.0 19.3 0.03 0.03 0.03 79 1012.7
20260506120503 10 19 8.0 19.3 0.03 0.03 0.03 78 1012.7
20260506120003 10 16 6.4 19.3 0.03 0.03 0.03 79 1012.7
20260506115715 10 20 6.4 19.3 0.03 0.03 0.03 80 1012.7
20260506115212 11 34 4.8 11.3 0.03 0.03 0.03 81 1012.7
20260506114504 10 32 4.8 16.1 0.03 0.03 0.03 82 1012.7
20260506114003 10 33 4.8 11.3 0.03 0.03 0.03 82 1012.8
20260506113504 10 25 4.8 11.3 0.03 0.03 0.03 83 1012.8
20260506113003 10 10 6.4 14.5 0.03 0.03 0.03 82 1012.8
20260506112503 10 12 9.7 20.9 0.03 0.03 0.03 80 1012.9
20260506112004 10 14 11.3 20.9 0.00 0.00 0.00 78 1012.9
20260506111503 10 15 9.7 19.3 0.00 0.00 0.00 77 1012.9
20260506111003 10 18 6.4 17.7 0.00 0.00 0.00 77 1012.7
20260506110503 10 11 4.8 14.5 0.00 0.00 0.00 77 1012.7
20260506110003 10 2 8.0 20.9 0.00 0.00 0.00 76 1012.7
20260506105504 10 355 11.3 24.1 0.00 0.00 0.00 75 1012.7
20260506105004 10 354 9.7 24.1 0.00 0.00 0.00 74 1012.7
20260506104503 10 353 9.7 24.1 0.00 0.00 0.00 74 1012.7
20260506104003 10 352 11.3 20.9 0.00 0.00 0.00 73 1012.8
20260506103503 10 355 9.7 20.9 0.00 0.00 0.00 73 1012.8
20260506103004 10 352 8.0 17.7 0.00 0.00 0.00 74 1012.8
20260506102503 10 351 9.7 20.9 0.00 0.00 0.00 74 1012.8
20260506102003 10 2 9.7 20.9 0.00 0.00 0.00 74 1012.8
20260506101503 10 12 9.7 19.3 0.00 0.00 0.00 75 1012.8
20260506101003 10 8 11.3 19.3 0.00 0.00 0.00 76 1012.8